[[{"header":{"parameterUnit":"m.s-1","parameterCategory":1,"la1":30.2991,"la2":30.254,"lo1":-89.0895,"lo2":-89.0444,"dy":0.0017,"dx":0.0017,"nx":28,"ny":28,"refTime":"2024-08-25T21:00:00:Z","depth":0,"parameterNumber":2,"parameterNumberName":"U-component_of_WINDS"},"data":[0,0,0,0,0,0,0,0,0,0,0,0,0,0,0,0,0,0,0,0,0,0,0,0,0,0,0,0,0,0,0,0,0,0,0,0,0,0,0,0,0,0,0,0,0,0,0,0,0,0,0,0,0,0,0,0,0,0,-0.66,-0.6601,0,-0.6625,-0.6625,-0.6625,-0.6584,-0.6582,-0.6581,-0.6579,-0.6606,-0.6608,-0.661,0,0,0,0,0,0,0,0,0,0,0,0,0,-0.6519,-0.6521,-0.66,-0.6601,-0.6601,-0.6625,-0.6625,-0.6625,-0.6584,-0.6582,-0.658,-0.6579,-0.6605,-0.6608,-0.661,0,0,0,0,0,0,0,0,0,0,0,0,0,-0.655,-0.6521,-0.66,-0.6583,-0.6582,-0.6624,-0.6625,-0.6625,-0.6584,-0.6582,-0.658,-0.6578,-0.6605,-0.6607,-0.661,-0.6672,0,0,-0.662,-0.6621,0,0,0,0,0,0,0,0,-0.6548,-0.6553,-0.6585,-0.6584,-0.6583,-0.6599,-0.6606,-0.6641,-0.6585,-0.6583,-0.6579,-0.6577,-0.6605,-0.6608,-0.6618,-0.6673,-0.6674,-0.662,-0.6622,-0.6623,-0.6624,0,0,0,0,0,0,0,-0.6546,-0.6552,-0.661,-0.6586,-0.6584,-0.6574,-0.6577,-0.6612,-0.6606,-0.6583,-0.658,-0.6584,-0.6604,-0.6615,-0.6618,-0.6675,-0.662,-0.6623,-0.6625,-0.6626,-0.6781,-0.6784,0,0,0,0,0,0,-0.6546,-0.655,-0.6609,-0.6611,-0.656,-0.6578,-0.658,-0.6596,-0.6606,-0.6605,-0.6585,-0.6582,-0.6611,-0.6614,-0.6619,-0.6691,-0.6623,-0.6626,-0.6628,-0.6779,-0.6782,-0.6784,0,0,0,0,0,0,-0.6545,-0.6552,-0.6608,-0.658,-0.6586,-0.6581,-0.66,-0.6597,-0.6608,-0.6607,-0.6606,-0.6597,-0.6609,-0.6614,-0.6659,-0.6692,-0.6627,-0.663,-0.6776,-0.678,-0.6783,-0.6837,0,0,0,0,0,0,-0.6542,-0.6551,-0.6575,-0.6581,-0.6588,-0.6648,-0.6602,-0.66,-0.6613,-0.6608,-0.6618,-0.6617,-0.6608,-0.6654,-0.6662,-0.6695,-0.6633,-0.6773,-0.6778,-0.6782,-0.6833,-0.6842,-0.685,0,0,0,0,0,-0.654,-0.6589,-0.6576,-0.6583,-0.6616,-0.665,-0.6654,-0.6642,-0.6616,-0.6639,-0.6639,-0.6617,-0.6687,-0.6659,-0.6667,-0.6702,-0.6771,-0.6777,-0.6782,-0.6829,-0.684,-0.685,0,0,0,0,0,0,-0.6588,-0.659,-0.6575,-0.6628,-0.6639,-0.6643,-0.6672,-0.6654,-0.6673,-0.6668,-0.6652,-0.6655,-0.6703,-0.6706,-0.6676,-0.6761,-0.6725,-0.6732,-0.6758,-0.6769,-0.6777,-0.6776,-0.6635,0,0,0,0,0,-0.6605,-0.6631,-0.6631,-0.6678,-0.6684,-0.6677,-0.6691,-0.668,-0.6691,-0.6696,-0.6699,-0.6711,-0.6735,-0.6752,-0.6774,-0.6832,-0.6834,-0.686,-0.6869,-0.6876,-0.6883,-0.6914,-0.6926,-0.6801,-0.6801,-0.6801,0,0,-0.664,-0.6644,-0.6662,-0.6688,-0.6695,-0.6723,-0.6681,-0.6713,-0.6734,-0.6701,-0.6743,-0.6746,-0.6758,-0.6809,-0.6832,-0.6814,-0.6917,-0.6883,-0.6888,-0.6891,-0.692,-0.6932,-0.6943,-0.6805,-0.6804,-0.6804,0,0,-0.6718,-0.6724,-0.6763,-0.6771,-0.6782,-0.6777,-0.6787,-0.6793,-0.6793,-0.6835,-0.6811,-0.6835,-0.6878,-0.6888,-0.6898,-0.6979,-0.6961,-0.6987,-0.7034,-0.7065,-0.7075,-0.7083,-0.7113,-0.7124,-0.6994,-0.6994,-0.6994,0,-0.6761,-0.6802,-0.6786,-0.6819,-0.6832,-0.6802,-0.6842,-0.6851,-0.6869,-0.6879,-0.6857,-0.691,-0.6916,-0.697,-0.6989,-0.6999,-0.7009,-0.6987,-0.7075,-0.7083,-0.7091,-0.7119,-0.713,-0.6997,-0.6997,-0.6996,-0.6996,0,-0.6854,-0.6883,-0.6914,-0.6931,-0.6947,-0.6984,-0.6974,-0.6991,-0.6979,-0.6976,-0.7019,-0.7025,-0.7048,-0.706,-0.7048,-0.7112,-0.71,-0.7077,-0.704,-0.7106,-0.7133,-0.7143,-0.7002,-0.7,-0.6999,-0.6999,0,0,-0.6966,-0.6973,-0.6985,-0.6993,-0.7002,-0.7025,-0.706,-0.7082,-0.7098,-0.7111,-0.714,-0.7176,-0.7155,-0.7167,-0.7156,-0.7183,-0.7247,-0.7156,-0.7156,-0.7174,-0.7319,-0.7337,-0.735,-0.7234,-0.7236,-0.7238,-0.7318,0,-0.7045,-0.7105,-0.7091,-0.7151,-0.7178,-0.7149,-0.718,-0.7189,-0.7187,-0.721,-0.7208,-0.7234,-0.7203,-0.721,-0.7235,-0.7234,-0.7276,-0.7228,-0.7263,-0.7264,-0.7262,-0.7363,-0.7383,-0.7458,-0.7328,-0.733,-0.7331,0,-0.7145,-0.7162,-0.7224,-0.7229,-0.724,-0.7268,-0.7287,-0.7308,-0.7318,-0.7315,-0.7328,-0.7311,-0.7347,-0.7308,-0.7357,-0.7324,-0.7337,-0.7338,-0.7341,-0.7345,-0.7303,-0.7371,-0.7482,-0.7494,-0.7347,-0.7346,-0.7344,0,-0.7222,-0.7259,-0.7301,-0.7309,-0.7315,-0.7336,-0.734,-0.7347,-0.7361,-0.7378,-0.7387,-0.7407,-0.7419,-0.7435,-0.7425,-0.7398,-0.7476,-0.7436,-0.7475,-0.7475,-0.7494,-0.7493,-0.761,-0.75,-0.75,-0.75,-0.7499,0,-0.7312,-0.7352,-0.7336,-0.7362,-0.7405,-0.7389,-0.7433,-0.7433,-0.744,-0.7466,-0.7442,-0.7467,-0.7451,-0.7475,-0.7467,-0.7509,-0.7514,-0.7513,-0.7511,-0.7516,-0.7516,-0.7525,-0.752,-0.7503,-0.7502,-0.7501,-0.7501,0,-0.7406,-0.7396,-0.7441,-0.7443,-0.7444,-0.7477,-0.7479,-0.7503,-0.7498,-0.7532,-0.7539,-0.7532,-0.7559,-0.7549,-0.7578,-0.7573,-0.7626,-0.7616,-0.7623,-0.7621,-0.766,-0.7657,-0.7788,-0.7805,-0.7683,-0.7684,-0.7685,0,-0.7465,-0.7495,-0.75,-0.7515,-0.752,-0.7546,-0.7559,-0.7544,-0.756,-0.7573,-0.7596,-0.762,-0.7639,-0.7683,-0.7681,-0.7703,-0.7694,-0.7738,-0.7697,-0.7702,-0.7696,-0.7695,-0.7698,-0.7747,-0.7749,-0.775,-0.7751,0,-0.7571,-0.7565,-0.7586,-0.7605,-0.7622,-0.7637,-0.7649,-0.7663,-0.7648,-0.7667,-0.7693,-0.7708,-0.7737,-0.7762,-0.7781,-0.7785,-0.7766,-0.7763,-0.7774,-0.778,-0.7783,-0.7783,-0.7647,-0.7761,-0.776,-0.7759,-0.7759,-0.7758,-0.765,-0.7675,-0.7683,-0.7707,-0.7714,-0.7726,-0.7749,-0.7747,-0.7769,-0.7791,-0.778,-0.7811,-0.782,-0.7844,-0.7851,-0.7875,-0.7858,-0.7873,-0.7876,-0.7881,-0.7886,-0.7778,-0.7878,-0.7878,-0.7878,-0.7877,-0.7877,0,-0.7756,-0.7759,-0.7781,-0.7799,-0.7818,-0.7797,-0.7809,-0.7827,-0.7854,-0.7863,-0.7882,-0.7913,-0.7936,-0.7936,-0.7958,-0.7977,-0.7969,-0.7984,-0.7983,-0.7984,-0.79,-0.7889,-0.799,-0.799,-0.799,-0.799,-0.799,-0.799,-0.7814,-0.7855,-0.785,-0.7895,-0.7897,-0.7927,-0.7936,-0.7947,-0.7955,-0.799,-0.8009,-0.8008,-0.8014,-0.8036,-0.8056,-0.8055,-0.8065,-0.8084,-0.808,-0.8001,-0.799,-0.798,-0.797,-0.8085,-0.8086,-0.8162,-0.8163,-0.8163]},{"header":{"parameterUnit":"m.s-1","parameterCategory":1,"la1":30.2991,"la2":30.254,"lo1":-89.0895,"lo2":-89.0444,"dy":0.0017,"dx":0.0017,"nx":28,"ny":28,"refTime":"2024-08-25T21:00:00:Z","depth":0,"parameterNumber":3,"parameterNumberName":"V-component_of_WINDS"},"data":[0,0,0,0,0,0,0,0,0,0,0,0,0,0,0,0,0,0,0,0,0,0,0,0,0,0,0,0,0,0,0,0,0,0,0,0,0,0,0,0,0,0,0,0,0,0,0,0,0,0,0,0,0,0,0,0,0,0,-2.178,-2.1781,0,-2.1864,-2.1865,-2.1866,-2.1888,-2.1887,-2.1887,-2.1886,-2.1972,-2.1975,-2.1977,0,0,0,0,0,0,0,0,0,0,0,0,0,-2.1637,-2.1639,-2.178,-2.1781,-2.1782,-2.1864,-2.1865,-2.1867,-2.1888,-2.1887,-2.1887,-2.1886,-2.1971,-2.1974,-2.1978,0,0,0,0,0,0,0,0,0,0,0,0,0,-2.1708,-2.164,-2.178,-2.1803,-2.1806,-2.1864,-2.1865,-2.1867,-2.1888,-2.1887,-2.1887,-2.1886,-2.197,-2.1974,-2.1978,-2.202,0,0,-2.1991,-2.1993,0,0,0,0,0,0,0,0,-2.1704,-2.1713,-2.1798,-2.1801,-2.1805,-2.1865,-2.1846,-2.1918,-2.1888,-2.1857,-2.1886,-2.1885,-2.1937,-2.1944,-2.1961,-2.2024,-2.2027,-2.1991,-2.1994,-2.1996,-2.1997,0,0,0,0,0,0,0,-2.1699,-2.1709,-2.1813,-2.1799,-2.1803,-2.1809,-2.1818,-2.186,-2.19,-2.1859,-2.1861,-2.1871,-2.1939,-2.1957,-2.1964,-2.2029,-2.1991,-2.1995,-2.1997,-2.1999,-2.2129,-2.213,0,0,0,0,0,0,-2.169,-2.1705,-2.1811,-2.1816,-2.1751,-2.1812,-2.1822,-2.1846,-2.19,-2.1907,-2.1872,-2.1872,-2.1951,-2.1959,-2.1967,-2.2018,-2.1996,-2.1999,-2.2002,-2.2128,-2.2129,-2.213,0,0,0,0,0,0,-2.1687,-2.1699,-2.1807,-2.1761,-2.1775,-2.1815,-2.1842,-2.1848,-2.1867,-2.1909,-2.1916,-2.1883,-2.195,-2.1961,-2.2006,-2.2022,-2.2001,-2.2005,-2.2127,-2.2128,-2.213,-2.2122,0,0,0,0,0,0,-2.1683,-2.1698,-2.1714,-2.1761,-2.1778,-2.1846,-2.1843,-2.1851,-2.1874,-2.1875,-2.1922,-2.1929,-2.195,-2.2,-2.201,-2.2027,-2.2008,-2.2126,-2.2128,-2.2129,-2.2121,-2.2123,-2.2125,0,0,0,0,0,-2.1677,-2.1708,-2.1715,-2.1727,-2.1799,-2.1846,-2.1856,-2.188,-2.1875,-2.1892,-2.1919,-2.1927,-2.2018,-2.2004,-2.2016,-2.2034,-2.2125,-2.2127,-2.2129,-2.212,-2.2123,-2.2125,0,0,0,0,0,0,-2.1661,-2.1715,-2.1723,-2.177,-2.1803,-2.185,-2.1871,-2.1882,-2.1917,-2.1917,-2.1945,-2.1956,-2.1999,-2.2022,-2.2005,-2.2077,-2.2072,-2.2076,-2.2061,-2.2063,-2.2065,-2.2058,-2.2012,0,0,0,0,0,-2.1664,-2.1698,-2.1743,-2.178,-2.1797,-2.1831,-2.1853,-2.1869,-2.1905,-2.1919,-2.1949,-2.1983,-2.202,-2.2043,-2.2079,-2.2125,-2.2135,-2.2143,-2.2145,-2.2146,-2.2149,-2.2175,-2.2179,-2.2137,-2.2137,-2.2137,0,0,-2.1668,-2.1701,-2.1721,-2.1778,-2.1806,-2.184,-2.1843,-2.188,-2.1906,-2.1924,-2.1969,-2.1993,-2.2033,-2.2079,-2.21,-2.2099,-2.2164,-2.2149,-2.215,-2.2152,-2.2178,-2.2182,-2.2185,-2.2139,-2.2139,-2.2138,0,0,-2.1693,-2.1723,-2.1757,-2.1785,-2.1827,-2.185,-2.1858,-2.1904,-2.192,-2.1965,-2.198,-2.2012,-2.2074,-2.2102,-2.2124,-2.2161,-2.217,-2.2172,-2.2181,-2.2205,-2.2209,-2.2212,-2.2224,-2.2228,-2.2175,-2.2175,-2.2175,0,-2.1693,-2.1747,-2.1773,-2.1809,-2.1833,-2.1852,-2.1887,-2.1913,-2.1965,-2.1981,-2.1979,-2.2057,-2.2085,-2.2138,-2.2147,-2.2165,-2.2174,-2.2166,-2.2206,-2.2209,-2.2213,-2.2225,-2.223,-2.2175,-2.2175,-2.2175,-2.2175,0,-2.1744,-2.1781,-2.1803,-2.1853,-2.188,-2.1915,-2.1947,-2.1971,-2.1985,-2.2008,-2.2054,-2.2089,-2.2132,-2.2146,-2.216,-2.22,-2.2198,-2.2201,-2.2195,-2.2216,-2.2228,-2.2233,-2.2175,-2.2175,-2.2175,-2.2175,0,0,-2.1761,-2.1825,-2.1833,-2.1856,-2.1904,-2.1933,-2.1969,-2.2012,-2.2031,-2.2067,-2.2097,-2.215,-2.2153,-2.2178,-2.2195,-2.2217,-2.2244,-2.2217,-2.2219,-2.222,-2.229,-2.2287,-2.2292,-2.225,-2.2251,-2.2252,-2.2286,0,-2.1792,-2.1857,-2.1882,-2.1935,-2.1969,-2.1988,-2.202,-2.2053,-2.2075,-2.2107,-2.2133,-2.2169,-2.217,-2.2186,-2.2208,-2.2235,-2.2258,-2.2234,-2.2279,-2.228,-2.2267,-2.2298,-2.2295,-2.2326,-2.2291,-2.2292,-2.2293,0,-2.1836,-2.1872,-2.1929,-2.1973,-2.1988,-2.2016,-2.2057,-2.2088,-2.2126,-2.2141,-2.2169,-2.2185,-2.2224,-2.2217,-2.227,-2.2253,-2.2273,-2.2289,-2.2291,-2.2295,-2.2287,-2.2302,-2.2336,-2.234,-2.2301,-2.23,-2.2299,0,-2.1842,-2.1904,-2.1946,-2.1965,-2.2018,-2.2037,-2.206,-2.2098,-2.2122,-2.2158,-2.2173,-2.2213,-2.2235,-2.2265,-2.2292,-2.2284,-2.2342,-2.2338,-2.2355,-2.2355,-2.2366,-2.2364,-2.2402,-2.238,-2.238,-2.238,-2.238,0,-2.1873,-2.1906,-2.1949,-2.1975,-2.2013,-2.2042,-2.2079,-2.2103,-2.2136,-2.2167,-2.2186,-2.2214,-2.2248,-2.2281,-2.2302,-2.2342,-2.2352,-2.2365,-2.237,-2.2362,-2.2361,-2.2375,-2.2373,-2.2381,-2.2381,-2.2381,-2.238,0,-2.1885,-2.1915,-2.1962,-2.2009,-2.2021,-2.2047,-2.2087,-2.2113,-2.2137,-2.2175,-2.2186,-2.2223,-2.2263,-2.2292,-2.2343,-2.2357,-2.24,-2.2406,-2.2387,-2.239,-2.2405,-2.2403,-2.2452,-2.246,-2.2434,-2.2434,-2.2434,0,-2.1902,-2.1929,-2.1978,-2.2,-2.2023,-2.2058,-2.2083,-2.2113,-2.2137,-2.2183,-2.2203,-2.2244,-2.2278,-2.234,-2.2371,-2.2411,-2.2417,-2.2432,-2.2423,-2.2415,-2.2416,-2.2414,-2.2416,-2.2432,-2.2432,-2.2432,-2.2433,0,-2.193,-2.1944,-2.1978,-2.2019,-2.2048,-2.2081,-2.2114,-2.2131,-2.2167,-2.2193,-2.2234,-2.2261,-2.2313,-2.2353,-2.2395,-2.2419,-2.2432,-2.2435,-2.2441,-2.2434,-2.2421,-2.2427,-2.2389,-2.2434,-2.2434,-2.2433,-2.2433,-2.2433,-2.1945,-2.1969,-2.2007,-2.2046,-2.2074,-2.2105,-2.2131,-2.2159,-2.2193,-2.2238,-2.2253,-2.2295,-2.2333,-2.2391,-2.2415,-2.2448,-2.2448,-2.2457,-2.2459,-2.2461,-2.246,-2.2417,-2.2456,-2.2456,-2.2456,-2.2456,-2.2456,0,-2.1972,-2.1998,-2.2033,-2.2079,-2.211,-2.212,-2.2157,-2.2181,-2.2218,-2.2252,-2.2286,-2.2332,-2.2371,-2.2406,-2.2447,-2.2467,-2.2474,-2.2476,-2.2475,-2.248,-2.2458,-2.2448,-2.247,-2.247,-2.247,-2.247,-2.247,-2.247,-2.199,-2.2031,-2.205,-2.2105,-2.2131,-2.2172,-2.2193,-2.2222,-2.2249,-2.23,-2.2333,-2.2356,-2.239,-2.2434,-2.247,-2.248,-2.2493,-2.2494,-2.2505,-2.2483,-2.2482,-2.248,-2.2471,-2.2497,-2.2497,-2.2524,-2.2525,-2.2525]}]]